Location: Esp�s Alto
(42.4476°N, 0.5876°E)
Time: 07:44:18
(UTC+00:00)

Cosmos 1606 Rocket - Pass Details

Date: 22 October 2019
Orbit: 603 x 632 km, 82.5° (Epoch: 20 November)

Event Time Altitude Azimuth Distance (km) Brightness Sun altitude
Rises 04:51:29 0° 343° (NNW) 2,864 6.8 -16.7°
Reaches altitude 10° 04:53:49 10° 336° (NNW) 1,957 5.9 -16.3°
Maximum altitude 04:57:48 38° 268° (W) 931 3.9 -15.5°
Drops below altitude 10° 05:01:48 10° 201° (SSW) 1,949 5.9 -14.8°
Sets 05:04:07 0° 193° (SSW) 2,852 6.9 -14.4°
